Date,TemperatureHighF,TemperatureAvgF,TemperatureLowF,DewpointHighF,DewpointAvgF,DewpointLowF,HumidityHigh,HumidityAvg,HumidityLow,PressureMaxIn,PressureMinIn,WindSpeedMaxMPH,WindSpeedAvgMPH,GustSpeedMaxMPH,PrecipitationSumIn
2013-10-1,78,61,49,57,50,45,100,72,37,29.87,29.08,11,2,11,0.00
2013-10-2,79,61,47,53,41,26,94,56,16,29.86,29.78,12,2,12,0.00
2013-10-3,73,56,41,40,30,-11,77,47,10,29.87,29.76,15,4,15,0.00
2013-10-4,77,60,42,29,17,3,42,22,10,30.00,29.81,8,3,8,0.00
2013-10-5,82,66,49,26,14,0,41,15,10,30.09,30.00,11,3,11,0.00
2013-10-6,84,66,50,29,20,9,39,20,10,30.04,29.89,14,3,14,0.00
2013-10-7,85,67,53,29,21,9,39,19,10,29.90,29.75,13,3,13,0.00
2013-10-8,78,61,50,34,21,9,50,25,10,29.78,29.56,12,2,12,0.00
2013-10-9,62,53,-8,45,39,-14,95,59,50,29.64,29.47,17,3,17,0.00
2013-10-10,68,54,42,45,41,37,91,65,35,29.87,29.64,17,3,17,0.00
2013-10-11,72,62,44,42,38,36,78,47,28,29.94,29.83,11,4,11,0.00
2013-10-12,72,58,0,43,37,32,64,31,24,30.14,29.75,6,4,6,0.00
2013-10-13,72,56,40,42,37,34,81,52,25,30.08,29.90,15,2,15,0.00
2013-10-14,76,59,44,37,30,17,69,38,13,30.15,30.02,14,2,14,0.00
2013-10-15,78,62,48,36,28,16,61,31,11,30.08,29.98,11,2,11,0.00
2013-10-16,79,65,51,33,20,10,49,20,10,30.16,30.04,14,3,14,0.00
2013-10-17,79,61,47,37,27,13,56,34,10,30.11,29.98,14,3,14,0.00
2013-10-18,82,62,45,32,26,16,54,31,10,30.11,30.01,14,3,14,0.00
2013-10-19,85,66,51,33,26,12,45,26,10,30.12,30.03,11,2,11,0.00
2013-10-20,83,64,47,35,25,12,52,27,10,30.06,29.94,11,2,11,0.00
2013-10-21,84,62,46,34,27,11,52,32,10,30.03,29.93,9,2,9,0.00
2013-10-22,87,68,52,29,19,5,35,17,10,30.05,29.94,14,2,14,0.00
2013-10-23,84,65,50,31,22,12,46,22,10,29.99,29.89,12,3,12,0.00
2013-10-24,81,61,45,44,28,10,66,35,10,30.08,29.96,11,2,11,0.00
2013-10-25,81,60,44,38,32,18,65,40,13,30.19,30.07,10,2,10,0.00
2013-10-26,84,61,45,38,30,16,69,39,10,30.18,30.03,10,2,10,0.00
2013-10-27,77,60,49,43,30,16,77,37,10,30.05,29.67,16,4,16,0.00
2013-10-28,53,49,46,47,43,40,96,79,66,29.90,29.68,14,4,19,0.02
2013-10-29,60,50,41,45,42,38,92,73,50,30.05,29.90,11,2,11,0.00
2013-10-30,66,50,38,39,36,30,94,62,31,30.15,29.04,12,2,12,0.00
2013-10-31,71,52,38,42,37,34,86,61,29,30.20,30.09,8,2,10,0.00